Time,TemperatureF,DewpointF,PressureIn,WindDirection,WindDirectionDegrees,WindSpeedMPH,WindSpeedGustMPH,Humidity,HourlyPrecipIn,Conditions,Clouds,dailyrainin,SoftwareType,DateUTC
2013-01-14 00:02:00,66.9,62.9,29.92,NNW,329,5.0,5.0,87,0.00,,,0.00,VWS V14.01,2013-01-14 10:02:00,
2013-01-14 00:07:00,67.0,62.7,29.92,NW,315,5.0,6.0,86,0.00,,,0.00,VWS V14.01,2013-01-14 10:07:00,
2013-01-14 00:12:00,67.1,62.8,29.92,WNW,303,8.0,8.0,86,0.00,,,0.00,VWS V14.01,2013-01-14 10:12:00,
2013-01-14 00:17:00,67.5,62.8,29.92,North,351,7.0,7.0,85,0.00,,,0.00,VWS V14.01,2013-01-14 10:17:00,
2013-01-14 00:22:00,67.5,62.5,29.92,NNE,19,3.0,5.0,84,0.00,,,0.00,VWS V14.01,2013-01-14 10:22:00,
2013-01-14 00:27:00,67.4,62.7,29.93,NW,326,5.0,6.0,85,0.00,,,0.00,VWS V14.01,2013-01-14 10:27:00,
2013-01-14 00:32:00,67.6,62.6,29.93,NE,42,5.0,7.0,84,0.00,,,0.00,VWS V14.01,2013-01-14 10:32:00,
2013-01-14 00:37:00,67.8,62.8,29.93,NW,324,5.0,5.0,84,0.00,,,0.00,VWS V14.01,2013-01-14 10:37:00,
2013-01-14 00:42:00,67.8,62.8,29.93,NNE,12,3.0,5.0,84,0.00,,,0.00,VWS V14.01,2013-01-14 10:42:00,
2013-01-14 00:47:00,67.9,62.9,29.93,NNW,336,7.0,7.0,84,0.00,,,0.00,VWS V14.01,2013-01-14 10:47:00,
2013-01-14 00:52:00,67.8,62.8,29.93,North,352,3.0,3.0,84,0.00,,,0.00,VWS V14.01,2013-01-14 10:52:00,
2013-01-14 00:57:00,67.7,63.0,29.93,NW,315,5.0,5.0,85,0.00,,,0.00,VWS V14.01,2013-01-14 10:57:00,
2013-01-14 01:02:00,67.6,63.3,29.93,North,357,4.0,4.0,86,0.00,,,0.00,VWS V14.01,2013-01-14 11:02:00,
2013-01-14 01:07:00,67.5,63.2,29.93,NW,324,6.0,6.0,86,0.00,,,0.00,VWS V14.01,2013-01-14 11:07:00,
2013-01-14 01:12:00,67.5,63.2,29.93,North,353,5.0,6.0,86,0.00,,,0.00,VWS V14.01,2013-01-14 11:12:00,
2013-01-14 01:18:00,67.6,63.3,29.93,NW,308,6.0,6.0,86,0.00,,,0.00,VWS V14.01,2013-01-14 11:18:00,
2013-01-14 01:23:00,67.4,63.1,29.93,NNW,340,4.0,4.0,86,0.00,,,0.00,VWS V14.01,2013-01-14 11:23:00,
2013-01-14 01:28:00,67.2,62.9,29.92,WNW,301,5.0,5.0,86,0.00,,,0.00,VWS V14.01,2013-01-14 11:28:00,
2013-01-14 01:33:00,67.2,63.2,29.92,NW,322,4.0,4.0,87,0.00,,,0.00,VWS V14.01,2013-01-14 11:33:00,
2013-01-14 01:38:00,67.3,63.3,29.92,NW,312,5.0,5.0,87,0.00,,,0.00,VWS V14.01,2013-01-14 11:38:00,
2013-01-14 01:43:00,67.5,63.5,29.92,NNW,336,3.0,4.0,87,0.00,,,0.00,VWS V14.01,2013-01-14 11:43:00,
2013-01-14 01:48:00,67.3,63.3,29.92,NW,321,4.0,4.0,87,0.00,,,0.00,VWS V14.01,2013-01-14 11:48:00,
2013-01-14 01:53:00,67.1,63.1,29.92,NNW,336,3.0,3.0,87,0.00,,,0.00,VWS V14.01,2013-01-14 11:53:00,
2013-01-14 01:58:00,67.2,63.2,29.92,NW,324,4.0,4.0,87,0.00,,,0.00,VWS V14.01,2013-01-14 11:58:00,
2013-01-14 02:03:00,67.2,63.2,29.92,NNW,338,3.0,4.0,87,0.00,,,0.00,VWS V14.01,2013-01-14 12:03:00,
2013-01-14 02:08:00,67.2,63.2,29.92,NNW,330,5.0,5.0,87,0.00,,,0.00,VWS V14.01,2013-01-14 12:08:00,
2013-01-14 02:13:00,66.9,62.9,29.92,NNW,348,4.0,4.0,87,0.00,,,0.00,VWS V14.01,2013-01-14 12:13:00,
2013-01-14 02:18:00,66.8,63.1,29.92,WNW,299,5.0,5.0,88,0.00,,,0.00,VWS V14.01,2013-01-14 12:18:00,
2013-01-14 02:23:00,66.8,62.8,29.92,NNW,348,4.0,5.0,87,0.00,,,0.00,VWS V14.01,2013-01-14 12:23:00,
2013-01-14 02:29:00,66.8,62.8,29.92,NNW,348,4.0,4.0,87,0.00,,,0.00,VWS V14.01,2013-01-14 12:29:00,
2013-01-14 02:34:00,66.8,62.8,29.91,NW,319,4.0,5.0,87,0.00,,,0.00,VWS V14.01,2013-01-14 12:34:00,
2013-01-14 02:39:00,66.6,62.6,29.91,NW,320,4.0,4.0,87,0.00,,,0.00,VWS V14.01,2013-01-14 12:39:00,
2013-01-14 02:44:00,66.6,62.6,29.91,NNW,337,3.0,3.0,87,0.00,,,0.00,VWS V14.01,2013-01-14 12:44:00,
2013-01-14 02:49:00,66.7,62.4,29.91,NNE,33,1.0,3.0,86,0.00,,,0.00,VWS V14.01,2013-01-14 12:49:00,
2013-01-14 02:54:00,66.7,62.4,29.91,NNE,12,3.0,4.0,86,0.00,,,0.00,VWS V14.01,2013-01-14 12:54:00,
2013-01-14 02:59:00,66.5,62.2,29.91,North,350,4.0,4.0,86,0.00,,,0.00,VWS V14.01,2013-01-14 12:59:00,
2013-01-14 03:04:00,66.4,62.1,29.91,North,353,4.0,4.0,86,0.00,,,0.00,VWS V14.01,2013-01-14 13:04:00,
2013-01-14 03:09:00,66.5,62.2,29.91,NNE,12,2.0,3.0,86,0.00,,,0.00,VWS V14.01,2013-01-14 13:09:00,
2013-01-14 03:14:00,66.4,62.1,29.91,NNW,338,6.0,6.0,86,0.00,,,0.00,VWS V14.01,2013-01-14 13:14:00,
2013-01-14 03:19:00,66.5,62.2,29.91,North,352,5.0,5.0,86,0.00,,,0.00,VWS V14.01,2013-01-14 13:19:00,
2013-01-14 03:24:00,66.5,61.9,29.91,NNW,339,5.0,5.0,85,0.00,,,0.00,VWS V14.01,2013-01-14 13:24:00,
2013-01-14 03:29:00,66.7,62.0,29.91,North,349,3.0,5.0,85,0.00,,,0.00,VWS V14.01,2013-01-14 13:29:00,
2013-01-14 03:34:00,66.6,62.0,29.91,North,350,5.0,5.0,85,0.00,,,0.00,VWS V14.01,2013-01-14 13:34:00,
2013-01-14 03:39:00,66.6,62.0,29.91,North,2,4.0,5.0,85,0.00,,,0.00,VWS V14.01,2013-01-14 13:39:00,
2013-01-14 03:44:00,66.7,62.0,29.91,NNW,336,4.0,4.0,85,0.00,,,0.00,VWS V14.01,2013-01-14 13:44:00,
2013-01-14 03:49:00,66.6,62.0,29.91,NNW,348,3.0,4.0,85,0.00,,,0.00,VWS V14.01,2013-01-14 13:49:00,
2013-01-14 03:54:00,66.3,61.7,29.91,NNW,327,4.0,5.0,85,0.00,,,0.00,VWS V14.01,2013-01-14 13:54:00,
2013-01-14 03:59:00,66.3,61.7,29.91,North,353,2.0,3.0,85,0.00,,,0.00,VWS V14.01,2013-01-14 13:59:00,
2013-01-14 04:04:00,66.4,61.8,29.91,NNW,329,3.0,4.0,85,0.00,,,0.00,VWS V14.01,2013-01-14 14:04:00,
2013-01-14 04:10:00,66.6,62.0,29.91,NNW,328,4.0,4.0,85,0.00,,,0.00,VWS V14.01,2013-01-14 14:10:00,
2013-01-14 04:15:00,66.5,62.2,29.91,NNE,21,2.0,2.0,86,0.00,,,0.00,VWS V14.01,2013-01-14 14:15:00,
2013-01-14 04:20:00,66.7,62.7,29.91,NE,34,1.0,1.0,87,0.00,,,0.00,VWS V14.01,2013-01-14 14:20:00,
2013-01-14 04:25:00,66.1,61.8,29.91,NNW,343,2.0,3.0,86,0.00,,,0.00,VWS V14.01,2013-01-14 14:25:00,
2013-01-14 04:30:00,66.0,62.3,29.91,North,8,1.0,1.0,88,0.00,,,0.00,VWS V14.01,2013-01-14 14:30:00,
2013-01-14 04:35:00,66.2,62.2,29.91,North,9,4.0,5.0,87,0.00,,,0.00,VWS V14.01,2013-01-14 14:35:00,
2013-01-14 04:40:00,66.2,62.2,29.91,NNW,342,5.0,6.0,87,0.00,,,0.00,VWS V14.01,2013-01-14 14:40:00,
2013-01-14 04:45:00,66.0,61.7,29.90,North,352,4.0,5.0,86,0.00,,,0.00,VWS V14.01,2013-01-14 14:45:00,
2013-01-14 04:50:00,66.4,61.8,29.90,North,352,3.0,4.0,85,0.00,,,0.00,VWS V14.01,2013-01-14 14:50:00,
2013-01-14 04:55:00,67.2,62.2,29.90,NNW,338,3.0,3.0,84,0.00,,,0.00,VWS V14.01,2013-01-14 14:55:00,
2013-01-14 05:00:00,67.0,61.7,29.90,SW,225,3.0,3.0,83,0.00,,,0.00,VWS V14.01,2013-01-14 15:00:00,
2013-01-14 05:05:00,67.4,62.4,29.90,NNE,17,0.0,0.0,84,0.00,,,0.00,VWS V14.01,2013-01-14 15:05:00,
2013-01-14 05:10:00,67.5,62.5,29.90,NNW,345,6.0,6.0,84,0.00,,,0.00,VWS V14.01,2013-01-14 15:10:00,
2013-01-14 05:16:00,69.3,62.5,29.90,WNW,294,6.0,6.0,79,0.00,,,0.00,VWS V14.01,2013-01-14 15:16:00,
2013-01-14 05:21:00,71.4,62.7,29.90,North,2,6.0,8.0,74,0.00,,,0.00,VWS V14.01,2013-01-14 15:21:00,
2013-01-14 05:26:00,72.0,62.5,29.90,WNW,286,6.0,8.0,72,0.00,,,0.00,VWS V14.01,2013-01-14 15:26:00,
2013-01-14 05:31:00,72.2,62.7,29.90,NNW,329,9.0,9.0,72,0.00,,,0.00,VWS V14.01,2013-01-14 15:31:00,
2013-01-14 05:36:00,72.7,62.4,29.89,North,358,2.0,4.0,70,0.00,,,0.00,VWS V14.01,2013-01-14 15:36:00,
2013-01-14 05:41:00,72.7,62.0,29.90,NNE,17,2.0,3.0,69,0.00,,,0.00,VWS V14.01,2013-01-14 15:41:00,
2013-01-14 05:46:00,72.2,61.9,29.90,WNW,292,4.0,4.0,70,0.00,,,0.00,VWS V14.01,2013-01-14 15:46:00,
2013-01-14 05:51:00,72.7,61.5,29.90,South,184,5.0,5.0,68,0.00,,,0.00,VWS V14.01,2013-01-14 15:51:00,
2013-01-14 05:56:00,72.5,61.8,29.90,NNE,13,1.0,1.0,69,0.00,,,0.00,VWS V14.01,2013-01-14 15:56:00,
2013-01-14 06:01:00,72.1,61.8,29.90,NNW,348,6.0,7.0,70,0.00,,,0.00,VWS V14.01,2013-01-14 16:01:00,
2013-01-14 06:06:00,72.2,61.9,29.90,NW,326,4.0,5.0,70,0.00,,,0.00,VWS V14.01,2013-01-14 16:06:00,
2013-01-14 06:11:00,72.4,62.1,29.90,WNW,296,4.0,5.0,70,0.00,,,0.00,VWS V14.01,2013-01-14 16:11:00,
2013-01-14 06:16:00,72.7,62.0,29.90,NNE,25,5.0,5.0,69,0.00,,,0.00,VWS V14.01,2013-01-14 16:16:00,
2013-01-14 06:21:00,72.7,61.5,29.90,NNE,29,6.0,10.0,68,0.00,,,0.00,VWS V14.01,2013-01-14 16:21:00,
2013-01-14 06:26:00,73.3,61.7,29.91,North,349,9.0,9.0,67,0.00,,,0.00,VWS V14.01,2013-01-14 16:26:00,
2013-01-14 06:32:00,73.6,61.5,29.91,WNW,282,5.0,8.0,66,0.00,,,0.00,VWS V14.01,2013-01-14 16:32:00,
2013-01-14 06:37:00,73.4,61.4,29.91,West,271,3.0,4.0,66,0.00,,,0.00,VWS V14.01,2013-01-14 16:37:00,
2013-01-14 06:42:00,72.9,61.7,29.91,NNW,327,10.0,13.0,68,0.00,,,0.00,VWS V14.01,2013-01-14 16:42:00,
2013-01-14 06:47:00,73.3,61.7,29.91,NW,315,10.0,13.0,67,0.00,,,0.00,VWS V14.01,2013-01-14 16:47:00,
2013-01-14 06:52:00,73.7,62.1,29.91,North,358,3.0,8.0,67,0.00,,,0.00,VWS V14.01,2013-01-14 16:52:00,
2013-01-14 06:57:00,73.8,62.6,29.92,NW,306,2.0,3.0,68,0.00,,,0.00,VWS V14.01,2013-01-14 16:57:00,
2013-01-14 07:02:00,73.5,62.7,29.92,WNW,298,6.0,6.0,69,0.00,,,0.00,VWS V14.01,2013-01-14 17:02:00,
2013-01-14 07:07:00,73.2,62.8,29.92,West,271,3.0,4.0,70,0.00,,,0.00,VWS V14.01,2013-01-14 17:07:00,
2013-01-14 07:12:00,73.3,62.5,29.92,NW,315,10.0,11.0,69,0.00,,,0.00,VWS V14.01,2013-01-14 17:12:00,
2013-01-14 07:17:00,73.3,62.9,29.92,WNW,295,14.0,14.0,70,0.00,,,0.00,VWS V14.01,2013-01-14 17:17:00,
2013-01-14 07:22:00,73.5,63.1,29.92,SE,139,2.0,2.0,70,0.00,,,0.00,VWS V14.01,2013-01-14 17:22:00,
2013-01-14 07:27:00,73.3,63.7,29.92,NNW,348,10.0,20.0,72,0.00,,,0.00,VWS V14.01,2013-01-14 17:27:00,
2013-01-14 07:32:00,73.6,64.0,29.91,NE,50,3.0,8.0,72,0.00,,,0.00,VWS V14.01,2013-01-14 17:32:00,
2013-01-14 07:37:00,74.0,64.0,29.91,NW,308,4.0,10.0,71,0.00,,,0.00,VWS V14.01,2013-01-14 17:37:00,
2013-01-14 07:42:00,74.3,63.9,29.91,NW,306,7.0,7.0,70,0.00,,,0.00,VWS V14.01,2013-01-14 17:42:00,
2013-01-14 07:47:00,74.6,64.6,29.91,NNW,336,11.0,13.0,71,0.00,,,0.00,VWS V14.01,2013-01-14 17:47:00,
2013-01-14 07:53:00,74.9,64.9,29.91,SW,223,10.0,10.0,71,0.00,,,0.00,VWS V14.01,2013-01-14 17:53:00,
2013-01-14 07:58:00,75.3,64.4,29.92,WNW,290,13.0,15.0,69,0.00,,,0.00,VWS V14.01,2013-01-14 17:58:00,
2013-01-14 08:03:00,75.4,64.9,29.92,West,278,4.0,10.0,70,0.00,,,0.00,VWS V14.01,2013-01-14 18:03:00,
2013-01-14 08:08:00,75.6,65.1,29.92,WNW,299,15.0,23.0,70,0.00,,,0.00,VWS V14.01,2013-01-14 18:08:00,
2013-01-14 08:13:00,75.7,65.2,29.91,West,281,19.0,22.0,70,0.00,,,0.00,VWS V14.01,2013-01-14 18:13:00,
2013-01-14 08:18:00,75.9,64.6,29.92,NW,311,10.0,10.0,68,0.00,,,0.00,VWS V14.01,2013-01-14 18:18:00,
2013-01-14 08:23:00,76.2,64.9,29.92,West,262,6.0,15.0,68,0.00,,,0.00,VWS V14.01,2013-01-14 18:23:00,
2013-01-14 08:28:00,76.3,65.0,29.92,West,265,18.0,20.0,68,0.00,,,0.00,VWS V14.01,2013-01-14 18:28:00,
2013-01-14 08:33:00,76.3,65.0,29.92,SW,216,11.0,16.0,68,0.00,,,0.00,VWS V14.01,2013-01-14 18:33:00,
2013-01-14 08:38:00,76.8,65.0,29.92,West,276,6.0,8.0,67,0.00,,,0.00,VWS V14.01,2013-01-14 18:38:00,
2013-01-14 08:43:00,77.2,65.4,29.93,SW,221,7.0,8.0,67,0.00,,,0.00,VWS V14.01,2013-01-14 18:43:00,
2013-01-14 08:48:00,77.3,65.1,29.93,WSW,248,7.0,8.0,66,0.00,,,0.00,VWS V14.01,2013-01-14 18:48:00,
2013-01-14 08:53:00,77.1,65.3,29.93,NW,304,10.0,15.0,67,0.00,,,0.00,VWS V14.01,2013-01-14 18:53:00,
2013-01-14 08:58:00,77.4,64.7,29.94,North,5,4.0,4.0,65,0.00,,,0.00,VWS V14.01,2013-01-14 18:58:00,
2013-01-14 09:03:00,77.7,65.0,29.93,SW,218,12.0,14.0,65,0.00,,,0.00,VWS V14.01,2013-01-14 19:03:00,
2013-01-14 09:09:00,77.6,64.9,29.94,NNE,19,5.0,12.0,65,0.00,,,0.00,VWS V14.01,2013-01-14 19:09:00,
2013-01-14 09:14:00,77.8,64.7,29.94,WNW,290,16.0,18.0,64,0.00,,,0.00,VWS V14.01,2013-01-14 19:14:00,
2013-01-14 09:19:00,78.0,65.3,29.94,SSW,202,9.0,18.0,65,0.00,,,0.00,VWS V14.01,2013-01-14 19:19:00,
2013-01-14 09:24:00,78.1,65.4,29.94,North,3,6.0,6.0,65,0.00,,,0.00,VWS V14.01,2013-01-14 19:24:00,
2013-01-14 09:29:00,78.3,65.1,29.94,SW,216,14.0,14.0,64,0.00,,,0.00,VWS V14.01,2013-01-14 19:29:00,
2013-01-14 09:34:00,78.3,65.1,29.94,West,279,5.0,8.0,64,0.00,,,0.00,VWS V14.01,2013-01-14 19:34:00,
2013-01-14 09:39:00,78.6,64.5,29.93,SW,223,14.0,21.0,62,0.00,,,0.00,VWS V14.01,2013-01-14 19:39:00,
2013-01-14 09:44:00,78.3,65.1,29.94,West,261,19.0,19.0,64,0.00,,,0.00,VWS V14.01,2013-01-14 19:44:00,
2013-01-14 09:49:00,78.5,64.4,29.93,WSW,250,11.0,11.0,62,0.00,,,0.00,VWS V14.01,2013-01-14 19:49:00,
2013-01-14 09:54:00,78.6,65.0,29.93,SSW,208,10.0,15.0,63,0.00,,,0.00,VWS V14.01,2013-01-14 19:54:00,
2013-01-14 09:59:00,78.8,66.1,29.93,WNW,291,5.0,5.0,65,0.00,,,0.00,VWS V14.01,2013-01-14 19:59:00,
2013-01-14 10:04:00,78.1,64.9,29.92,SW,217,9.0,14.0,64,0.00,,,0.00,VWS V14.01,2013-01-14 20:04:00,
2013-01-14 10:09:00,78.0,64.4,29.92,SW,214,16.0,16.0,63,0.00,,,0.00,VWS V14.01,2013-01-14 20:09:00,
2013-01-14 10:14:00,78.3,64.7,29.92,WSW,239,14.0,18.0,63,0.00,,,0.00,VWS V14.01,2013-01-14 20:14:00,
2013-01-14 10:20:00,78.0,64.4,29.92,SW,236,7.0,10.0,63,0.00,,,0.00,VWS V14.01,2013-01-14 20:20:00,
2013-01-14 10:25:00,77.9,64.8,29.92,SW,220,12.0,15.0,64,0.00,,,0.00,VWS V14.01,2013-01-14 20:25:00,
2013-01-14 10:30:00,78.3,65.1,29.92,West,263,10.0,11.0,64,0.00,,,0.00,VWS V14.01,2013-01-14 20:30:00,
2013-01-14 10:35:00,78.8,64.7,29.92,SW,230,8.0,10.0,62,0.00,,,0.00,VWS V14.01,2013-01-14 20:35:00,
2013-01-14 10:40:00,78.8,65.2,29.91,WSW,246,4.0,8.0,63,0.00,,,0.00,VWS V14.01,2013-01-14 20:40:00,
2013-01-14 10:45:00,79.1,65.0,29.91,WNW,284,10.0,10.0,62,0.00,,,0.00,VWS V14.01,2013-01-14 20:45:00,
2013-01-14 10:50:00,79.1,65.0,29.91,South,181,13.0,19.0,62,0.00,,,0.00,VWS V14.01,2013-01-14 20:50:00,
2013-01-14 10:55:00,78.6,65.9,29.91,SW,224,9.0,13.0,65,0.00,,,0.00,VWS V14.01,2013-01-14 20:55:00,
2013-01-14 11:00:00,78.4,66.6,29.91,West,265,24.0,24.0,67,0.00,,,0.00,VWS V14.01,2013-01-14 21:00:00,
2013-01-14 11:05:00,78.5,65.8,29.91,WNW,291,13.0,13.0,65,0.00,,,0.00,VWS V14.01,2013-01-14 21:05:00,
2013-01-14 11:10:00,78.9,64.8,29.91,SW,219,9.0,9.0,62,0.00,,,0.00,VWS V14.01,2013-01-14 21:10:00,
2013-01-14 11:15:00,79.5,65.3,29.90,ESE,108,5.0,6.0,62,0.00,,,0.00,VWS V14.01,2013-01-14 21:15:00,
2013-01-14 11:20:00,79.5,65.3,29.90,WSW,255,20.0,20.0,62,0.00,,,0.00,VWS V14.01,2013-01-14 21:20:00,
2013-01-14 11:25:00,78.6,64.5,29.89,SW,220,16.0,16.0,62,0.00,,,0.00,VWS V14.01,2013-01-14 21:25:00,
2013-01-14 11:30:00,78.7,64.6,29.89,WNW,301,7.0,10.0,62,0.00,,,0.00,VWS V14.01,2013-01-14 21:30:00,
2013-01-14 11:35:00,78.7,65.1,29.88,NW,324,9.0,13.0,63,0.00,,,0.00,VWS V14.01,2013-01-14 21:35:00,
2013-01-14 11:41:00,78.6,64.5,29.88,SSW,212,14.0,14.0,62,0.00,,,0.00,VWS V14.01,2013-01-14 21:41:00,
2013-01-14 11:46:00,78.7,64.6,29.88,North,349,10.0,22.0,62,0.00,,,0.00,VWS V14.01,2013-01-14 21:46:00,
2013-01-14 11:51:00,79.0,64.9,29.89,West,279,9.0,9.0,62,0.00,,,0.00,VWS V14.01,2013-01-14 21:51:00,
2013-01-14 11:56:00,79.2,65.1,29.89,SSW,207,14.0,20.0,62,0.00,,,0.00,VWS V14.01,2013-01-14 21:56:00,
2013-01-14 12:01:00,79.5,65.3,29.89,SSW,213,13.0,13.0,62,0.00,,,0.00,VWS V14.01,2013-01-14 22:01:00,
2013-01-14 12:06:00,79.3,64.2,29.89,South,187,7.0,11.0,60,0.00,,,0.00,VWS V14.01,2013-01-14 22:06:00,
2013-01-14 12:11:00,79.7,64.6,29.89,North,10,8.0,8.0,60,0.00,,,0.00,VWS V14.01,2013-01-14 22:11:00,
2013-01-14 12:16:00,79.7,64.1,29.89,NE,38,4.0,8.0,59,0.00,,,0.00,VWS V14.01,2013-01-14 22:16:00,
2013-01-14 12:21:00,79.2,64.1,29.89,WSW,255,17.0,18.0,60,0.00,,,0.00,VWS V14.01,2013-01-14 22:21:00,
2013-01-14 12:26:00,79.1,64.5,29.88,South,189,5.0,7.0,61,0.00,,,0.00,VWS V14.01,2013-01-14 22:26:00,
2013-01-14 12:31:00,78.5,64.0,29.88,North,356,1.0,3.0,61,0.00,,,0.00,VWS V14.01,2013-01-14 22:31:00,
2013-01-14 12:37:00,78.4,63.8,29.87,West,276,9.0,14.0,61,0.00,,,0.00,VWS V14.01,2013-01-14 22:37:00,
2013-01-14 12:42:00,78.1,63.6,29.87,SW,234,3.0,4.0,61,0.00,,,0.00,VWS V14.01,2013-01-14 22:42:00,
2013-01-14 12:47:00,78.4,63.8,29.87,SSW,213,9.0,9.0,61,0.00,,,0.00,VWS V14.01,2013-01-14 22:47:00,
2013-01-14 12:52:00,78.3,63.8,29.86,NE,45,3.0,7.0,61,0.00,,,0.00,VWS V14.01,2013-01-14 22:52:00,
2013-01-14 12:57:00,78.3,63.8,29.85,SW,214,7.0,16.0,61,0.00,,,0.00,VWS V14.01,2013-01-14 22:57:00,
2013-01-14 13:02:00,78.6,63.6,29.85,WSW,248,14.0,14.0,60,0.00,,,0.00,VWS V14.01,2013-01-14 23:02:00,
2013-01-14 13:07:00,78.5,63.0,29.84,SSW,211,24.0,24.0,59,0.00,,,0.00,VWS V14.01,2013-01-14 23:07:00,
2013-01-14 13:12:00,78.4,63.4,29.84,WSW,239,12.0,18.0,60,0.00,,,0.00,VWS V14.01,2013-01-14 23:12:00,
2013-01-14 13:17:00,78.3,63.8,29.84,WSW,239,9.0,15.0,61,0.00,,,0.00,VWS V14.01,2013-01-14 23:17:00,
2013-01-14 13:23:00,78.1,63.6,29.84,WNW,296,11.0,11.0,61,0.00,,,0.00,VWS V14.01,2013-01-14 23:23:00,
2013-01-14 13:28:00,77.9,64.3,29.83,SW,230,10.0,14.0,63,0.00,,,0.00,VWS V14.01,2013-01-14 23:28:00,
2013-01-14 13:33:00,77.7,64.1,29.83,WSW,253,13.0,13.0,63,0.00,,,0.00,VWS V14.01,2013-01-14 23:33:00,
2013-01-14 13:38:00,77.9,63.8,29.83,WSW,256,4.0,4.0,62,0.00,,,0.00,VWS V14.01,2013-01-14 23:38:00,
2013-01-14 13:43:00,78.3,64.7,29.83,SW,230,11.0,14.0,63,0.00,,,0.00,VWS V14.01,2013-01-14 23:43:00,
2013-01-14 13:48:00,77.6,63.1,29.83,West,265,14.0,15.0,61,0.00,,,0.00,VWS V14.01,2013-01-14 23:48:00,
2013-01-14 13:53:00,77.5,63.9,29.83,SW,221,3.0,4.0,63,0.00,,,0.00,VWS V14.01,2013-01-14 23:53:00,
2013-01-14 13:58:00,77.6,64.0,29.83,SW,232,6.0,8.0,63,0.00,,,0.00,VWS V14.01,2013-01-14 23:58:00,
2013-01-14 14:03:00,77.6,64.0,29.82,West,263,7.0,11.0,63,0.00,,,0.00,VWS V14.01,2013-01-15 00:03:00,
2013-01-14 14:08:00,77.0,65.2,29.83,NW,305,5.0,7.0,67,0.00,,,0.00,VWS V14.01,2013-01-15 00:08:00,
2013-01-14 14:13:00,76.3,66.2,29.83,SSW,199,5.0,7.0,71,0.02,,,0.02,VWS V14.01,2013-01-15 00:13:00,
2013-01-14 14:18:00,75.2,67.1,29.83,West,266,4.0,5.0,76,0.02,,,0.02,VWS V14.01,2013-01-15 00:18:00,
2013-01-14 14:23:00,74.7,67.4,29.83,WSW,241,8.0,13.0,78,0.03,,,0.03,VWS V14.01,2013-01-15 00:23:00,
2013-01-14 14:28:00,74.4,67.1,29.82,SW,221,6.0,6.0,78,0.03,,,0.03,VWS V14.01,2013-01-15 00:28:00,
2013-01-14 14:33:00,74.3,67.4,29.82,NNW,332,3.0,7.0,79,0.03,,,0.03,VWS V14.01,2013-01-15 00:33:00,
2013-01-14 14:39:00,74.3,67.0,29.82,WSW,249,7.0,9.0,78,0.03,,,0.03,VWS V14.01,2013-01-15 00:39:00,
2013-01-14 14:44:00,74.5,66.8,29.83,North,3,1.0,1.0,77,0.05,,,0.05,VWS V14.01,2013-01-15 00:44:00,
2013-01-14 14:49:00,74.4,65.2,29.83,WSW,244,6.0,6.0,73,0.05,,,0.05,VWS V14.01,2013-01-15 00:49:00,
2013-01-14 14:54:00,74.5,67.6,29.83,NW,304,5.0,5.0,79,0.05,,,0.05,VWS V14.01,2013-01-15 00:54:00,
2013-01-14 14:59:00,74.6,66.5,29.84,NE,47,5.0,6.0,76,0.05,,,0.05,VWS V14.01,2013-01-15 00:59:00,
2013-01-14 15:04:00,74.7,66.6,29.84,SW,223,10.0,10.0,76,0.05,,,0.05,VWS V14.01,2013-01-15 01:04:00,
2013-01-14 15:09:00,74.8,67.5,29.84,SW,224,4.0,5.0,78,0.05,,,0.05,VWS V14.01,2013-01-15 01:09:00,
2013-01-14 15:14:00,74.8,67.1,29.84,WNW,291,5.0,5.0,77,0.05,,,0.05,VWS V14.01,2013-01-15 01:14:00,
2013-01-14 15:19:00,75.1,67.8,29.84,WSW,256,6.0,7.0,78,0.05,,,0.05,VWS V14.01,2013-01-15 01:19:00,
2013-01-14 15:24:00,75.3,68.3,29.84,WSW,239,11.0,12.0,79,0.03,,,0.05,VWS V14.01,2013-01-15 01:24:00,
2013-01-14 15:29:00,75.5,66.6,29.84,WSW,248,9.0,9.0,74,0.03,,,0.05,VWS V14.01,2013-01-15 01:29:00,
2013-01-14 15:34:00,75.7,66.4,29.84,WSW,237,6.0,6.0,73,0.02,,,0.05,VWS V14.01,2013-01-15 01:34:00,
2013-01-14 15:39:00,76.0,64.7,29.84,WNW,293,10.0,10.0,68,0.02,,,0.05,VWS V14.01,2013-01-15 01:39:00,
2013-01-14 15:44:00,76.6,65.3,29.84,NNW,327,8.0,9.0,68,0.02,,,0.05,VWS V14.01,2013-01-15 01:44:00,
2013-01-14 15:49:00,76.4,65.9,29.84,WSW,240,5.0,8.0,70,0.02,,,0.05,VWS V14.01,2013-01-15 01:49:00,
2013-01-14 15:55:00,76.2,64.9,29.84,North,11,2.0,4.0,68,0.00,,,0.05,VWS V14.01,2013-01-15 01:55:00,
2013-01-14 16:00:00,76.4,65.5,29.84,WSW,238,9.0,14.0,69,0.00,,,0.05,VWS V14.01,2013-01-15 02:00:00,
2013-01-14 16:05:00,76.2,65.3,29.85,West,279,6.0,10.0,69,0.00,,,0.05,VWS V14.01,2013-01-15 02:05:00,
2013-01-14 16:10:00,76.2,65.7,29.85,WSW,240,7.0,8.0,70,0.00,,,0.05,VWS V14.01,2013-01-15 02:10:00,
2013-01-14 16:15:00,76.3,65.4,29.85,North,10,6.0,9.0,69,0.00,,,0.05,VWS V14.01,2013-01-15 02:15:00,
2013-01-14 16:20:00,76.4,64.6,29.86,NNE,18,1.0,2.0,67,0.00,,,0.05,VWS V14.01,2013-01-15 02:20:00,
2013-01-14 16:25:00,76.4,64.2,29.86,ENE,72,1.0,1.0,66,0.00,,,0.05,VWS V14.01,2013-01-15 02:25:00,
2013-01-14 16:30:00,76.4,64.6,29.86,ESE,106,5.0,6.0,67,0.00,,,0.05,VWS V14.01,2013-01-15 02:30:00,
2013-01-14 16:35:00,76.3,65.8,29.86,SSW,199,4.0,4.0,70,0.00,,,0.05,VWS V14.01,2013-01-15 02:35:00,
2013-01-14 16:40:00,76.0,64.7,29.86,South,191,1.0,2.0,68,0.00,,,0.05,VWS V14.01,2013-01-15 02:40:00,
2013-01-14 16:45:00,75.4,64.9,29.85,ENE,61,2.0,4.0,70,0.00,,,0.05,VWS V14.01,2013-01-15 02:45:00,
2013-01-14 16:50:00,74.7,65.5,29.86,NNE,16,6.0,6.0,73,0.00,,,0.05,VWS V14.01,2013-01-15 02:50:00,
2013-01-14 16:55:00,74.3,65.1,29.85,West,273,13.0,13.0,73,0.00,,,0.05,VWS V14.01,2013-01-15 02:55:00,
2013-01-14 17:00:00,74.9,65.3,29.86,NW,306,2.0,4.0,72,0.00,,,0.05,VWS V14.01,2013-01-15 03:00:00,
2013-01-14 17:06:00,74.9,63.6,29.86,NW,315,5.0,5.0,68,0.00,,,0.05,VWS V14.01,2013-01-15 03:06:00,
2013-01-14 17:11:00,75.1,64.7,29.87,NE,47,1.0,1.0,70,0.00,,,0.05,VWS V14.01,2013-01-15 03:11:00,
2013-01-14 17:16:00,75.2,64.8,29.87,NE,52,5.0,6.0,70,0.00,,,0.05,VWS V14.01,2013-01-15 03:16:00,
2013-01-14 17:21:00,75.2,64.3,29.87,NE,53,1.0,3.0,69,0.00,,,0.05,VWS V14.01,2013-01-15 03:21:00,
2013-01-14 17:26:00,75.1,64.7,29.87,North,1,6.0,6.0,70,0.00,,,0.05,VWS V14.01,2013-01-15 03:26:00,
2013-01-14 17:31:00,73.8,65.4,29.87,North,360,6.0,6.0,75,0.00,,,0.05,VWS V14.01,2013-01-15 03:31:00,
2013-01-14 17:36:00,73.0,65.4,29.87,NNE,23,5.0,5.0,77,0.00,,,0.05,VWS V14.01,2013-01-15 03:36:00,
2013-01-14 17:41:00,72.7,65.4,29.87,NNE,16,6.0,7.0,78,0.00,,,0.05,VWS V14.01,2013-01-15 03:41:00,
2013-01-14 17:46:00,72.2,65.7,29.87,NW,323,8.0,8.0,80,0.00,,,0.05,VWS V14.01,2013-01-15 03:46:00,
2013-01-14 17:51:00,72.0,65.5,29.88,North,357,4.0,4.0,80,0.01,,,0.06,VWS V14.01,2013-01-15 03:51:00,
2013-01-14 17:56:00,71.3,65.5,29.89,West,277,15.0,15.0,82,0.06,,,0.11,VWS V14.01,2013-01-15 03:56:00,
2013-01-14 18:02:00,70.1,64.4,29.89,North,5,2.0,2.0,82,0.13,,,0.18,VWS V14.01,2013-01-15 04:02:00,
2013-01-14 18:07:00,69.4,64.7,29.89,NNE,21,4.0,4.0,85,0.13,,,0.18,VWS V14.01,2013-01-15 04:07:00,
2013-01-14 18:12:00,69.0,65.3,29.88,NNE,26,3.0,5.0,88,0.13,,,0.18,VWS V14.01,2013-01-15 04:12:00,
2013-01-14 18:17:00,69.1,65.7,29.88,NNE,15,4.0,4.0,89,0.13,,,0.18,VWS V14.01,2013-01-15 04:17:00,
2013-01-14 18:22:00,69.1,65.4,29.88,NNE,19,5.0,6.0,88,0.13,,,0.18,VWS V14.01,2013-01-15 04:22:00,
2013-01-14 18:27:00,69.0,65.6,29.88,NNW,346,3.0,3.0,89,0.13,,,0.18,VWS V14.01,2013-01-15 04:27:00,
2013-01-14 18:32:00,68.9,65.5,29.88,NNE,16,0.0,0.0,89,0.13,,,0.18,VWS V14.01,2013-01-15 04:32:00,
2013-01-14 18:37:00,68.9,65.5,29.89,ESE,110,0.0,0.0,89,0.13,,,0.18,VWS V14.01,2013-01-15 04:37:00,
2013-01-14 18:42:00,68.9,65.8,29.88,NW,319,5.0,5.0,90,0.13,,,0.18,VWS V14.01,2013-01-15 04:42:00,
2013-01-14 18:47:00,68.7,65.7,29.89,NNE,23,0.0,0.0,90,0.13,,,0.18,VWS V14.01,2013-01-15 04:47:00,
2013-01-14 18:52:00,68.6,65.6,29.89,North,2,1.0,1.0,90,0.13,,,0.18,VWS V14.01,2013-01-15 04:52:00,
2013-01-14 18:58:00,68.6,65.9,29.89,NW,312,2.0,3.0,91,0.13,,,0.18,VWS V14.01,2013-01-15 04:58:00,
2013-01-14 19:00:00,68.6,65.9,29.89,NW,325,1.0,2.0,91,0.13,,,0.18,VWS V14.01,2013-01-15 05:00:00,
2013-01-14 19:02:00,68.6,66.2,29.89,NNW,333,2.0,3.0,92,0.00,,,0.18,VWS V14.01,2013-01-15 05:02:00,
2013-01-14 19:07:00,68.5,65.8,29.89,NW,312,5.0,5.0,91,0.00,,,0.18,VWS V14.01,2013-01-15 05:07:00,
2013-01-14 19:12:00,68.6,66.2,29.89,NNW,332,2.0,4.0,92,0.00,,,0.18,VWS V14.01,2013-01-15 05:12:00,
2013-01-14 19:17:00,68.7,66.3,29.89,NNW,345,3.0,3.0,92,0.00,,,0.18,VWS V14.01,2013-01-15 05:17:00,
2013-01-14 19:22:00,68.7,66.0,29.89,NNW,334,2.0,3.0,91,0.00,,,0.18,VWS V14.01,2013-01-15 05:22:00,
2013-01-14 19:27:00,68.8,66.4,29.89,East,85,0.0,0.0,92,0.00,,,0.18,VWS V14.01,2013-01-15 05:27:00,
2013-01-14 19:32:00,68.8,66.4,29.89,East,82,0.0,0.0,92,0.00,,,0.18,VWS V14.01,2013-01-15 05:32:00,
2013-01-14 19:38:00,68.7,66.3,29.89,SE,130,1.0,1.0,92,0.00,,,0.18,VWS V14.01,2013-01-15 05:38:00,
2013-01-14 19:43:00,68.5,66.4,29.89,SE,130,0.0,0.0,93,0.00,,,0.18,VWS V14.01,2013-01-15 05:43:00,
2013-01-14 19:48:00,68.4,66.3,29.89,NNE,18,1.0,1.0,93,0.00,,,0.18,VWS V14.01,2013-01-15 05:48:00,
2013-01-14 19:53:00,68.3,66.2,29.89,NW,315,2.0,2.0,93,0.00,,,0.18,VWS V14.01,2013-01-15 05:53:00,
2013-01-14 19:58:00,68.3,66.5,29.89,WNW,290,0.0,1.0,94,0.00,,,0.18,VWS V14.01,2013-01-15 05:58:00,
2013-01-14 20:03:00,68.3,66.5,29.89,NW,311,0.0,1.0,94,0.00,,,0.18,VWS V14.01,2013-01-15 06:03:00,
2013-01-14 20:08:00,68.3,66.5,29.89,NNW,332,2.0,3.0,94,0.00,,,0.18,VWS V14.01,2013-01-15 06:08:00,
2013-01-14 20:13:00,68.3,66.5,29.90,SW,216,2.0,2.0,94,0.00,,,0.18,VWS V14.01,2013-01-15 06:13:00,
2013-01-14 20:18:00,68.4,66.3,29.90,NW,310,3.0,3.0,93,0.00,,,0.18,VWS V14.01,2013-01-15 06:18:00,
2013-01-14 20:23:00,68.5,66.4,29.89,WNW,282,3.0,5.0,93,0.00,,,0.18,VWS V14.01,2013-01-15 06:23:00,
2013-01-14 20:28:00,68.6,66.5,29.90,West,274,4.0,4.0,93,0.00,,,0.18,VWS V14.01,2013-01-15 06:28:00,
2013-01-14 20:33:00,68.6,66.5,29.89,SW,236,3.0,3.0,93,0.00,,,0.18,VWS V14.01,2013-01-15 06:33:00,
2013-01-14 20:38:00,68.6,66.5,29.90,SSW,198,4.0,4.0,93,0.00,,,0.18,VWS V14.01,2013-01-15 06:38:00,
2013-01-14 20:43:00,68.6,66.5,29.90,West,259,4.0,6.0,93,0.00,,,0.18,VWS V14.01,2013-01-15 06:43:00,
2013-01-14 20:49:00,68.6,66.5,29.90,SW,229,4.0,4.0,93,0.00,,,0.18,VWS V14.01,2013-01-15 06:49:00,
2013-01-14 20:54:00,68.5,66.7,29.90,SW,226,3.0,5.0,94,0.00,,,0.18,VWS V14.01,2013-01-15 06:54:00,
2013-01-14 20:59:00,68.3,66.5,29.89,SW,227,4.0,5.0,94,0.00,,,0.18,VWS V14.01,2013-01-15 06:59:00,
2013-01-14 21:04:00,68.0,66.2,29.89,SW,226,4.0,4.0,94,0.00,,,0.18,VWS V14.01,2013-01-15 07:04:00,
2013-01-14 21:09:00,67.8,66.0,29.89,SSW,212,7.0,9.0,94,0.00,,,0.18,VWS V14.01,2013-01-15 07:09:00,
2013-01-14 21:14:00,67.7,65.9,29.89,SW,220,2.0,2.0,94,0.00,,,0.18,VWS V14.01,2013-01-15 07:14:00,
2013-01-14 21:19:00,67.7,66.2,29.89,SW,221,5.0,6.0,95,0.00,,,0.18,VWS V14.01,2013-01-15 07:19:00,
2013-01-14 21:24:00,67.7,66.2,29.89,West,272,5.0,6.0,95,0.00,,,0.18,VWS V14.01,2013-01-15 07:24:00,
2013-01-14 21:29:00,67.6,66.1,29.89,WSW,250,4.0,6.0,95,0.00,,,0.18,VWS V14.01,2013-01-15 07:29:00,
2013-01-14 21:34:00,67.7,66.2,29.89,WNW,291,5.0,5.0,95,0.00,,,0.18,VWS V14.01,2013-01-15 07:34:00,
2013-01-14 21:39:00,67.7,66.2,29.89,NW,309,3.0,4.0,95,0.00,,,0.18,VWS V14.01,2013-01-15 07:39:00,
2013-01-14 21:44:00,67.7,66.2,29.89,North,357,1.0,1.0,95,0.00,,,0.18,VWS V14.01,2013-01-15 07:44:00,
2013-01-14 21:49:00,67.7,66.2,29.89,NW,312,2.0,2.0,95,0.00,,,0.18,VWS V14.01,2013-01-15 07:49:00,
2013-01-14 21:54:00,67.8,66.3,29.89,NNW,347,2.0,2.0,95,0.00,,,0.18,VWS V14.01,2013-01-15 07:54:00,
2013-01-14 21:59:00,67.8,66.3,29.89,NW,312,2.0,2.0,95,0.00,,,0.18,VWS V14.01,2013-01-15 07:59:00,
2013-01-14 22:04:00,67.9,66.4,29.89,North,352,3.0,3.0,95,0.00,,,0.18,VWS V14.01,2013-01-15 08:04:00,
2013-01-14 22:10:00,67.9,66.1,29.89,NW,312,4.0,4.0,94,0.00,,,0.18,VWS V14.01,2013-01-15 08:10:00,
2013-01-14 22:15:00,68.0,66.2,29.89,NNW,340,2.0,2.0,94,0.00,,,0.18,VWS V14.01,2013-01-15 08:15:00,
2013-01-14 22:20:00,68.1,66.3,29.89,East,99,0.0,1.0,94,0.00,,,0.18,VWS V14.01,2013-01-15 08:20:00,
2013-01-14 22:25:00,68.1,66.3,29.89,East,99,0.0,0.0,94,0.00,,,0.18,VWS V14.01,2013-01-15 08:25:00,
2013-01-14 22:30:00,68.1,66.3,29.89,East,99,0.0,0.0,94,0.00,,,0.18,VWS V14.01,2013-01-15 08:30:00,
2013-01-14 22:35:00,68.1,66.3,29.89,East,99,0.0,0.0,94,0.00,,,0.18,VWS V14.01,2013-01-15 08:35:00,
2013-01-14 22:40:00,68.1,66.3,29.89,ESE,102,1.0,1.0,94,0.00,,,0.18,VWS V14.01,2013-01-15 08:40:00,
2013-01-14 22:45:00,68.2,66.4,29.89,South,175,0.0,0.0,94,0.00,,,0.18,VWS V14.01,2013-01-15 08:45:00,
2013-01-14 22:50:00,68.2,66.4,29.89,South,175,1.0,1.0,94,0.00,,,0.18,VWS V14.01,2013-01-15 08:50:00,
2013-01-14 22:55:00,68.3,66.5,29.89,South,175,1.0,1.0,94,0.00,,,0.18,VWS V14.01,2013-01-15 08:55:00,
2013-01-14 23:00:00,68.2,66.4,29.89,South,175,0.0,0.0,94,0.00,,,0.18,VWS V14.01,2013-01-15 09:00:00,
2013-01-14 23:06:00,68.2,66.4,29.89,South,175,0.0,0.0,94,0.00,,,0.18,VWS V14.01,2013-01-15 09:06:00,
2013-01-14 23:11:00,68.2,66.4,29.88,South,175,0.0,0.0,94,0.01,,,0.19,VWS V14.01,2013-01-15 09:11:00,
2013-01-14 23:16:00,68.2,66.7,29.88,NE,42,1.0,1.0,95,0.01,,,0.19,VWS V14.01,2013-01-15 09:16:00,
2013-01-14 23:21:00,68.2,66.7,29.88,NE,40,1.0,1.0,95,0.01,,,0.19,VWS V14.01,2013-01-15 09:21:00,
2013-01-14 23:26:00,68.1,66.6,29.88,North,353,1.0,1.0,95,0.01,,,0.19,VWS V14.01,2013-01-15 09:26:00,
2013-01-14 23:31:00,68.0,66.5,29.88,NNE,14,0.0,0.0,95,0.01,,,0.19,VWS V14.01,2013-01-15 09:31:00,
2013-01-14 23:36:00,68.0,66.5,29.88,NNE,14,0.0,0.0,95,0.01,,,0.19,VWS V14.01,2013-01-15 09:36:00,
2013-01-14 23:41:00,68.1,66.6,29.88,NNE,14,0.0,0.0,95,0.01,,,0.19,VWS V14.01,2013-01-15 09:41:00,
2013-01-14 23:46:00,68.1,66.6,29.88,North,351,1.0,2.0,95,0.01,,,0.19,VWS V14.01,2013-01-15 09:46:00,
2013-01-14 23:51:00,68.1,66.6,29.88,North,351,0.0,0.0,95,0.01,,,0.19,VWS V14.01,2013-01-15 09:51:00,
2013-01-14 23:56:00,68.1,66.6,29.88,North,351,0.0,0.0,95,0.01,,,0.19,VWS V14.01,2013-01-15 09:56:00,